Location: Shepherdstown, WV
(39.4326°N, 77.8042°W)
Time: 19:17:37
(UTC-04:00)

Vanguard 1 Rocket - Pass Details

Date: 07 August 2021
Orbit: 650 x 4226 km, 34.3° (Epoch: 19 September)

Event Time Altitude Azimuth Distance (km) Brightness Sun altitude
Rises 12:14:17 0° 266° (W) 8,160 12.1 63.1°
Reaches altitude 10° 12:20:29 10° 265° (W) 6,786 11.8 63.7°
Maximum altitude 12:40:25 71° 187° (S) 2,428 11.8 65.5°
Drops below altitude 10° 12:50:23 10° 105° (ESE) 3,664 10.8 66.1°
Sets 12:52:42 0° 103° (ESE) 4,339 11.0 66.2°
